Chicago DuPage, IL

9:55 PM CDT on October 23, 2017 (GMT -0500)
Du Page

Weather History for KDPA - April, 2013

Change the Weather History Date:

Saturday, April 27, 2013

  Actual Average Record
Temperature  
Mean Temperature 54 °F 53 °F  
Max Temperature 68 °F 65 °F 75 °F (2003)
Min Temperature 40 °F 41 °F 27 °F (2012)
Degree Days  
Heating Degree Days 11 12  
Month to date heating degree days 544 442  
Since 1 July heating degree days 6328 6033  
Cooling Degree Days 0 0  
Month to date cooling degree days 0 0  
Year to date cooling degree days 0 0  
Growing Degree Days 4 (Base 50)    
Moisture  
Dew Point 42 °F    
Average Humidity 67    
Maximum Humidity 100    
Minimum Humidity 33    
Precipitation  
Precipitation 0.00 in 0.15 in 1.40 in (1999)
Month to date precipitation 6.27 2.86  
Year to date precipitation 13.23 7.95  
Sea Level Pressure  
Sea Level Pressure 30.18 in    
Wind  
Wind Speed 7 mph (SSE)    
Max Wind Speed 17 mph    
Max Gust Speed 22 mph    
Visibility 8 miles    
Events      
T = Trace of Precipitation, MM = Missing Value Source: NWS Daily Summary

Daily Weather History Graph

Daily Weather History Graph

Search for Another Location

Airport or City:

Trip Planner

Search our weather history database for the weather conditions in past years. The results will help you decide how hot, cold, wet, or windy it might be!

Date:

Astronomy

Apr. 27, 2013 Rise Set
Actual Time 5:54 AM CDT 7:47 PM CDT
Civil Twilight 5:24 AM CDT 8:17 PM CDT
Nautical Twilight 4:47 AM CDT 8:54 PM CDT
Astronomical Twilight 4:08 AM CDT 9:34 PM CDT
Moon 10:18 PM CDT (4/27) 7:11 AM CDT (4/27)
Length of Visible Light 14h 53m
Length of Day
13h 53m
Waning Gibbous, 95% of the Moon is Illuminated
Apr 27
Waning Gibbous
May 2
Last Quarter
May 9
New
May 17
First Quarter
May 24
Full

Hourly Weather History & Observations

Time (CDT) Temp. Windchill Dew Point Humidity Pressure Visibility Wind Dir Wind Speed Gust Speed Precip Events Conditions
12:52 AM 48.9 °F - 43.0 °F 80% 30.30 in 10.0 mi SSW 6.9 mph - N/A   Clear
1:52 AM 48.0 °F - 43.0 °F 83% 30.28 in 10.0 mi SSW 6.9 mph - N/A   Clear
2:52 AM 45.0 °F 41.8 °F 42.1 °F 90% 30.27 in 10.0 mi South 5.8 mph - N/A   Clear
3:52 AM 44.1 °F 40.8 °F 41.0 °F 89% 30.27 in 10.0 mi South 5.8 mph - N/A   Clear
4:52 AM 45.0 °F 43.5 °F 42.1 °F 90% 30.26 in 8.0 mi South 3.5 mph - N/A   Clear
5:52 AM 42.1 °F - 39.9 °F 92% 30.25 in 5.0 mi Calm Calm - N/A   Clear
6:16 AM 42.8 °F - 41.0 °F 93% 30.25 in 1.5 mi Calm Calm - N/A   Clear
6:24 AM 41.0 °F - 39.2 °F 93% 30.25 in 0.8 mi Calm Calm - N/A   Clear
6:31 AM 41.0 °F - 41.0 °F 100% 30.25 in 2.0 mi Calm Calm - N/A   Clear
6:42 AM 42.8 °F - 42.8 °F 100% 30.25 in 1.8 mi Calm Calm - N/A   Clear
6:52 AM 43.0 °F - 43.0 °F 100% 30.26 in 2.5 mi Calm Calm - N/A   Clear
6:59 AM 44.6 °F - 42.8 °F 93% 30.25 in 4.0 mi Calm Calm - N/A   Clear
7:52 AM 50.0 °F - 46.0 °F 86% 30.26 in 7.0 mi South 5.8 mph - N/A   Clear
8:52 AM 54.0 °F - 46.9 °F 77% 30.25 in 10.0 mi South 4.6 mph - N/A   Clear
9:52 AM 57.0 °F - 46.0 °F 67% 30.22 in 10.0 mi ESE 5.8 mph - N/A   Clear
10:52 AM 61.0 °F - 42.1 °F 50% 30.22 in 10.0 mi SSE 10.4 mph - N/A   Clear
11:52 AM 64.0 °F - 42.1 °F 45% 30.21 in 10.0 mi South 11.5 mph 21.9 mph N/A   Clear
12:52 PM 64.9 °F - 42.1 °F 43% 30.19 in 10.0 mi SSE 13.8 mph - N/A   Clear
1:52 PM 64.9 °F - 41.0 °F 42% 30.16 in 10.0 mi SE 10.4 mph 20.7 mph N/A   Clear
2:52 PM 66.9 °F - 39.9 °F 37% 30.13 in 10.0 mi SE 9.2 mph - N/A   Scattered Clouds
3:52 PM 66.9 °F - 37.0 °F 33% 30.10 in 10.0 mi SSW 6.9 mph - N/A   Mostly Cloudy
4:52 PM 66.9 °F - 39.0 °F 36% 30.08 in 10.0 mi SSE 10.4 mph 17.3 mph N/A   Overcast
5:52 PM 66.0 °F - 41.0 °F 40% 30.06 in 10.0 mi SSE 9.2 mph - N/A   Overcast
6:52 PM 64.9 °F - 39.9 °F 40% 30.05 in 10.0 mi SSE 8.1 mph - N/A   Overcast
7:52 PM 63.0 °F - 39.9 °F 43% 30.05 in 10.0 mi ESE 6.9 mph - N/A   Overcast
8:52 PM 61.0 °F - 39.9 °F 46% 30.04 in 10.0 mi East 8.1 mph - N/A   Overcast
9:52 PM 59.0 °F - 39.9 °F 49% 30.03 in 10.0 mi East 5.8 mph - N/A   Overcast
10:52 PM 57.0 °F - 39.9 °F 53% 30.01 in 10.0 mi ENE 6.9 mph - N/A   Overcast
11:52 PM 55.9 °F - 42.1 °F 60% 30.00 in 10.0 mi ESE 5.8 mph - N/A   Overcast